Regional Weather Roundup
Issued by NWS

Home | Current Version | Previous Version | Text Only | Print | Product List | Glossary Off
Versions: 1 2 3 4 5 6 7 8 9 10 11 12 13 14 15 16 17 18 19 20 21 22 23 24 25 26 27 28 29 30 31 32 33 34 35 36 37 38 39 40 41 42 43 44 45 46 47 48 49 50

000
ASUS43 KMKX 231421
RWRWI

WISCONSIN REGIONAL WEATHER ROUNDUP
NATIONAL WEATHER SERVICE MILWAUKEE/SULLIVAN WI
800 AM CST SUN NOV 23 2014

NOTE: "FAIR" INDICATES FEW OR NO CLOUDS BELOW 12,000 FEET WITH NO
SIGNIFICANT WEATHER AND/OR OBSTRUCTIONS TO VISIBILITY.

WIZ001-002-006>008-014>016-023>028-231500-
NORTHWEST WISCONSIN

CITY           SKY/WX    TMP DP  RH WIND       PRES   REMARKS
SUPERIOR ARPT  FOG       36  36 100 CALM      29.44R VSB<1/4
ASHLAND        CLOUDY    46  44  93 S7        29.45R
HAYWARD        FOG       44  43  96 S8        29.45S VSB 1/2
SIREN          FOG       44  43  98 S6        29.44S VSB 3/4
CUMBERLAND     FOG       39  39 100 S8        29.47S VSB<1/4 WCI  34
RICE LAKE      FOG       42  41  97 SE7       29.49S VSB<1/4
CHETEK         FOG       44  44 100 S6        29.49R VSB<1/4
LADYSMITH      FOG       45  44  97 S8        29.51S VSB<1/4
EAU CLAIRE     CLOUDY    48  46  93 S9        29.50R
MENOMONIE      CLOUDY    48  48 100 S7        29.50R FOG
NEW RICHMOND   FOG       44  44 100 S9        29.47S VSB 1/4
OSCEOLA        FOG       43  43 100 S7        29.49S VSB<1/4
$$

WIZ003>005-009-010-017-018-231500-
NORTH CENTRAL WISCONSIN

CITY           SKY/WX    TMP DP  RH WIND       PRES   REMARKS
MANITOWISH WTR FOG       41  41 100 S8        29.49S VSB<1/4
ARBOR VITAE    SNOW      43  42  96 S9        29.51S VSB<1/4
WOODRUFF       SNOW      43  42  96 S9        29.51S VSB<1/4
RHINELANDER    FOG       44  44 100 S9        29.54R VSB 3/4
EAGLE RIVER    FOG       43  43 100 S7        29.52S VSB 1/4
LAND O LAKES   FOG       44  44 100 S8        29.52S VSB 1/4
PHILLIPS       FOG       43  43 100 S8        29.50R VSB<1/4
TOMAHAWK       FOG       42  41  97 CALM      29.53S VSB<1/4
MEDFORD        FOG       40  40 100 S9        29.53S VSB<1/4 WCI  35
MERRILL        FOG       44  44 100 S6        29.55R VSB 3/4
$$

WIZ029-030-035-036-043>047-231500-
CENTRAL WISCONSIN

CITY           SKY/WX    TMP DP  RH WIND       PRES   REMARKS
WAUSAU         FOG       44  44 100 S10       29.55S VSB 1/4
MOSINEE        FOG       43  43 100 S8        29.57S VSB 1/4
MARSHFIELD     LGT RAIN  46  44  93 S9        29.55S VSB 1/4
STEVENS POINT  CLOUDY    45  45 100 S9        29.59R FOG
WAUPACA        CLOUDY    49  48  95 S9        29.60S FOG
WAUTOMA        CLOUDY    48  48 100 S7        29.61S FOG
WISC RAPIDS    CLOUDY    48  46  93 S9        29.59R
CAMP DOUGLAS   CLOUDY    48  48 100 S6        29.57S
$$

WIZ011>013-019>022-031-037>040-048>050-231500-
NORTHEAST WISCONSIN

CITY           SKY/WX    TMP DP  RH WIND       PRES   REMARKS
ANTIGO         FOG       39  39 100 S9        29.57S VSB<1/4 WCI  33
SHAWANO        CLOUDY    48  47  95 S5        29.61S FOG
OCONTO         CLOUDY    43  43 100 S7        29.62S
STURGEON BAY   CLOUDY    45  43  93 S16       29.65F VSB 1/2
GREEN BAY      CLOUDY    47  45  93 S10       29.63S FOG
MANITOWOC      FOG       45  45 100 S15       29.67S VSB 1/2
APPLETON       FOG       45  45 100 S10       29.63S VSB 1
CLINTONVILLE   CLOUDY    45  45 100 S8        29.60S FOG
OSHKOSH        CLOUDY    47  46  97 S13       29.64R FOG
$$

WIZ032>034-041-042-053>061-231500-
SOUTHWEST WISCONSIN

CITY           SKY/WX    TMP DP  RH WIND       PRES   REMARKS
LA CROSSE      CLOUDY    50  48  93 S13       29.54S FOG
SPARTA         CLOUDY    49  48  96 S7        29.57R
VIROQUA        CLOUDY    48  48 100 S9        29.56S
BOSCOBEL       CLOUDY    53  49  86 S13       29.58F
PRAIRIE DU CHI CLOUDY    51  48  90 SE7       29.57S
PLATTEVILLE    CLOUDY    49  48  97 S13       29.62F
$$

WIZ056-057-062-063-064-067-068-231500-
SOUTH CENTRAL WISCONSIN

CITY           SKY/WX    TMP DP  RH WIND       PRES   REMARKS
REEDSBURG      CLOUDY    49  48  97 S9G17     29.59S
BARABOO/DELLS  CLOUDY    48  47  94 S10       29.60S FOG
LONE ROCK      CLOUDY    54  48  80 S9        29.61S
MINERAL POINT  FOG       50  48  93 S8        29.61F VSB 1/2
MADISON        CLOUDY    49  47  93 S14       29.64F FOG
MIDDLETON      CLOUDY    50  50  99 S9        29.64F
WATERTOWN      CLOUDY    47  47 100 S10G17    29.67R FOG
MONROE         CLOUDY    46  46 100 S15       29.65F FOG
JANESVILLE     CLOUDY    48  46  93 S12       29.68  FOG
$$

WIZ051-052-058>065-066-070>072-231500-
SOUTHEAST WISCONSIN

CITY           SKY/WX    TMP DP  RH WIND       PRES   REMARKS
MILWAUKEE      CLOUDY    49  45  86 S10       29.72R
WAUKESHA       NOT AVBL
MILWAUKEE/TIMM CLOUDY    48  46  93 S12       29.71R FOG
RACINE         CLOUDY    48  42  80 S10       29.73S
BURLINGTON     CLOUDY    47  43  86 S13G18    29.71R
KENOSHA        CLOUDY    50  43  77 S15       29.73R
FOND DU LAC    CLOUDY    49  46  90 S16       29.64S
SHEBOYGAN      FOG       46  45  96 S8        29.68S VSB 3/4
WEST BEND      CLOUDY    48  45  87 S8        29.67S FOG
JUNEAU         CLOUDY    47  47  98 S14       29.67R FOG
$$

LSZ147-162-231500-
LAKE SUPERIOR

STATION/POSITION TIME  TEMP    WIND        PRES    WAVE
                       AIR SEA DIR/SP/G            HT/PER
                 (UTC) (F)     (DEG/KT/KT) (MB)    (FT/S)
DEVILS ISLAND    1400   42     180/  3/  4  997.4R
PORT WING        1300   38      CALM  /  1  996.6
SAXON HARBOR     1300   47     200/  4/  9  996.6F
$$

LMZ867-665-643>646-231500-
LAKE MICHIGAN

STATION/POSITION TIME  TEMP    WIND        PRES    WAVE
                       AIR SEA DIR/SP/G            HT/PER
                 (UTC) (F)     (DEG/KT/KT) (MB)    (FT/S)
CHAMBERS ISLAND  1300   46     160/  6/ 13 1004.1F
N MID LAKE BUOY  1350   44 42  200/ 21/ 25 1004.6F   5/ 6
NORTHPORT PIER   1300   44     180/  5/ 12 1004.4F
SISTER BAY       1328          190/ 14/ 17   N/A
KEWAUNEE LAKESHO 1400   40     180/ 10/ 12 1004.0R
SHEBOYGAN LAKESH 1400   44 39  180/ 14/ 15 1005.7R
PORT WASHINGTON  1300   43     190/  5/  7 1006.1F
ATWATER BUOY     1400   50      90/  2/  2 1006.8F
MILWAUKEE LAKESH 1300   49     190/ 11/ 14   N/A
S MID LAKE BUOY  1350   45 43  170/ 16/ 17 1008.0R   3/ 4
KENOSHA   LAKESH 1400   47     190/ 11/ 17 1006.8S
$$

TC  - TEMPERATURE IN CELSIUS
VSB - VISIBILITY IN STATUTE MILES
WCI - WIND CHILL INDEX
HX  - HEAT INDEX




USA.gov is the U.S. government's official web portal to all federal, state and local government web resources and services.